EHI
0 0 0 0 0 0 0 0 0 0 0 0 0 0 1 2 3 3 3 3 3 2 3 7 13 17 15 11 9 12 16 15 11 9 8 7 5 3 4 5 6 6 7 8
0 0 0 0 0 0 0 0 0 0 0 0 0 0 1 2 3 3 3 4 4 5 6 11 17 18 17 14 14 17 20 18 14 11 9 8 6 4 4 5 6 6 7 7
0 0 0 0 0 0 0 0 0 0 0 0 0 0 0 2 4 4 3 4 6 8 11 15 20 20 18 18 20 24 25 23 19 14 12 11 9 7 5 4 5 6 6 6
0 0 0 0 0 0 0 0 0 0 0 0 0 0 0 2 3 4 4 5 6 8 13 17 21 22 21 22 24 26 29 28 23 17 15 15 13 10 6 5 6 7 5 4
0 0 0 0 0 0 0 0 0 0 0 0 0 0 0 1 2 4 4 6 8 11 16 20 24 26 27 28 29 29 30 31 26 19 16 16 14 12 10 8 8 8 7 4
0 0 0 0 0 0 0 0 0 0 0 0 0 0 0 0 2 3 5 7 10 16 22 25 27 31 34 35 36 34 33 32 27 21 17 15 14 14 13 11 10 9 8 6
0 0 0 0 0 0 0 0 0 0 0 0 0 0 0 1 2 4 6 8 13 19 25 27 28 30 34 37 38 39 38 34 28 24 21 17 15 15 15 15 14 11 8 7
0 0 0 0 0 0 0 0 0 0 0 0 0 0 0 2 3 5 8 11 15 20 24 26 26 26 29 34 38 42 42 37 31 27 24 21 17 15 15 16 15 11 7 6
0 0 0 0 0 0 0 0 0 0 0 0 0 0 1 4 5 8 12 14 17 22 25 25 23 20 21 28 36 43 45 40 34 30 27 24 19 15 13 13 11 9 7 6
0 0 0 0 0 0 0 0 0 0 0 0 0 0 2 5 8 10 13 16 18 23 26 26 22 19 20 26 35 45 48 44 37 32 29 27 22 17 13 10 7 5 5 7
0 0 0 0 0 0 0 0 0 0 0 0 0 0 2 6 9 11 12 15 18 22 24 23 22 23 24 27 35 45 50 48 42 36 32 28 23 19 16 12 6 3 4 7
0 0 0 0 0 0 0 0 0 0 0 0 0 0 2 7 11 11 12 13 16 19 19 18 19 24 28 29 34 42 49 50 47 42 36 29 23 20 19 15 9 4 4 6
0 0 0 0 0 0 0 0 0 0 0 0 0 1 4 10 14 14 15 14 14 16 17 17 18 22 28 31 34 41 49 51 49 45 39 31 25 21 19 16 11 7 6 7
0 0 0 0 0 0 0 0 0 0 0 0 0 1 4 11 16 17 16 15 15 16 19 21 21 22 26 30 35 42 48 49 49 45 40 35 29 23 18 15 12 9 8 9
0 0 0 0 0 0 0 0 0 0 0 0 1 1 4 10 17 18 16 15 16 18 21 24 25 25 26 30 35 42 45 47 47 46 42 37 32 26 20 15 13 12 11 12
0 0 0 0 0 0 0 0 0 0 0 0 1 3 6 13 20 21 19 18 20 23 26 27 28 28 29 32 36 40 41 42 44 46 44 40 34 28 22 18 16 16 16 16
0 0 0 0 0 0 0 0 0 0 1 1 1 5 10 18 24 23 22 22 22 26 29 30 30 31 30 33 37 39 38 38 41 43 44 41 35 29 25 22 20 19 19 19
0 0 0 0 0 0 0 0 0 1 2 2 3 8 14 20 22 21 20 21 23 25 27 27 30 32 31 33 36 39 38 37 39 41 42 40 35 30 27 25 22 21 21 22
0 0 0 0 0 0 0 0 1 1 2 4 7 12 16 19 20 17 17 21 24 26 25 25 29 33 33 33 36 38 38 37 39 40 41 38 34 30 28 27 24 22 22 22
0 0 0 0 0 0 0 0 0 1 2 4 8 12 16 19 17 14 17 21 25 27 27 27 30 33 33 33 34 35 35 36 38 39 39 36 33 31 31 29 26 24 23 22
0 0 0 0 0 0 0 0 0 0 1 3 7 12 16 17 14 15 21 23 23 26 29 30 31 31 31 32 33 33 33 34 35 36 35 32 31 31 31 31 29 27 25 23
0 0 0 0 0 0 0 0 0 0 1 3 7 12 17 18 18 21 26 27 23 25 30 32 31 31 32 34 35 34 34 34 32 32 31 29 28 29 29 30 30 29 27 25
0 0 0 0 0 0 0 0 0 1 3 5 9 14 19 22 23 24 27 27 24 25 28 31 31 32 34 36 36 34 33 34 32 30 29 28 27 27 27 29 29 29 28 27
0 0 0 1 1 1 1 1 1 2 5 9 11 14 18 20 21 22 23 24 23 23 25 27 29 31 32 32 32 31 30 31 30 29 28 28 27 25 24 25 25 25 25 25
1 1 0 1 2 2 2 3 4 5 8 12 15 16 17 17 18 19 19 19 20 23 24 24 26 27 27 26 26 27 26 26 27 27 28 28 26 22 20 19 17 16 17 17
0 1 0 0 1 3 3 4 5 7 10 14 18 18 17 16 17 18 17 17 19 23 24 24 24 25 24 23 24 24 25 24 25 28 28 27 25 21 18 14 10 9 10 10
Wind_Speed
1 4 3 6 6 6 4 2 3 4 5 6 7 8 11 11 10 10 9 9 9 9 8 8 8 8 7 6 6 5 5 4 3 2 2 2 1 1 1 1 2 2 2 3
4 3 8 6 3 3 2 2 2 1 4 5 5 6 10 12 14 13 12 12 11 9 7 8 8 8 8 7 6 5 5 5 4 3 2 2 2 1 1 1 1 2 2 2
6 7 5 4 2 2 2 4 5 4 1 3 6 1 6 7 7 8 10 10 11 13 12 10 9 9 8 7 7 7 5 5 4 4 3 2 2 2 2 1 1 1 1 2
5 5 4 4 5 5 4 5 6 6 5 2 5 3 6 7 6 9 9 9 11 12 11 10 9 9 9 8 7 6 6 5 4 4 4 4 3 2 2 1 1 0 0 1
5 3 5 6 6 6 6 4 4 5 4 2 1 4 6 5 7 10 11 11 12 12 12 12 10 10 9 8 7 6 6 5 4 4 4 4 3 2 1 1 1 0 0 0
6 3 5 6 5 5 4 5 6 5 5 1 4 4 5 7 13 12 11 11 12 12 12 10 9 8 7 7 7 6 6 5 4 4 4 4 4 3 3 2 1 1 0 0
5 5 3 2 1 1 6 7 4 4 4 5 4 3 8 8 10 13 14 13 12 11 11 11 10 9 8 8 7 7 7 5 5 4 4 4 4 4 4 3 2 1 0 0
2 6 4 3 6 5 4 10 9 6 4 4 3 3 7 6 7 8 10 11 11 11 11 12 12 11 10 9 9 8 7 6 5 5 4 3 3 2 2 2 2 2 1 1
5 6 5 3 4 8 4 4 8 8 3 0 4 4 6 3 4 7 9 10 11 11 11 11 11 11 10 10 10 9 9 7 6 5 4 3 3 3 2 2 2 1 1 1
5 3 6 3 2 1 7 7 6 6 5 1 3 3 4 3 5 6 9 10 11 9 9 9 9 10 9 9 8 8 8 8 6 5 5 4 3 3 3 2 1 1 1 1
4 3 5 2 2 3 2 3 6 5 6 7 2 7 7 8 7 7 8 10 11 10 9 9 8 9 9 8 8 8 8 7 6 6 5 4 3 3 3 2 2 1 1 2
3 5 2 5 4 4 5 5 7 6 3 5 5 7 5 6 6 8 9 8 8 8 8 8 9 9 9 8 8 8 8 8 7 6 6 5 4 4 3 2 2 1 2 2
3 6 2 6 7 5 1 2 5 6 6 5 5 6 4 3 4 5 8 7 6 6 6 7 8 9 9 9 8 9 8 8 7 7 7 5 5 4 3 3 2 2 2 2
6 5 7 8 7 3 2 2 2 6 4 4 6 5 2 3 5 5 6 7 6 6 6 7 6 7 8 8 8 9 8 8 8 8 7 7 6 5 4 3 3 2 2 2
7 4 2 4 4 2 1 3 1 2 6 7 7 6 7 8 9 9 8 8 7 6 6 7 7 6 7 8 7 8 8 8 9 8 8 7 6 5 4 4 3 3 3 3
5 4 2 2 2 1 2 3 2 2 3 4 4 4 5 5 6 6 7 8 8 7 7 6 7 7 7 8 9 8 8 8 8 9 8 7 7 6 5 5 4 3 3 2
2 4 4 2 4 4 4 4 3 2 2 6 6 7 3 5 7 8 9 9 8 8 7 7 7 7 7 8 9 10 9 8 8 8 8 8 7 7 6 6 5 4 3 3
5 4 3 1 3 3 9 4 3 3 1 2 4 4 7 8 8 6 7 9 7 7 7 6 6 6 6 6 6 6 7 8 7 7 8 8 8 7 6 5 5 4 3 4
7 7 4 3 2 5 7 3 1 3 2 1 4 4 5 6 6 2 3 5 7 8 7 6 5 5 4 5 6 7 6 7 7 7 8 7 8 7 7 7 6 5 4 4
5 7 6 4 3 5 7 6 2 5 1 3 2 4 4 5 4 4 4 4 4 4 4 5 4 5 4 4 5 7 7 7 7 7 7 7 8 8 8 8 6 4 4 4
3 3 4 4 3 7 7 6 4 4 6 3 2 3 4 3 6 6 5 4 4 4 4 5 6 5 5 5 6 6 6 7 6 5 6 6 7 7 7 6 5 5 5 4
6 5 4 4 4 8 5 3 3 6 4 1 2 3 3 2 2 3 5 5 5 5 4 5 5 4 4 5 6 5 5 5 4 5 5 5 6 6 6 6 5 5 6 5
4 7 7 8 8 7 2 3 3 3 2 1 2 2 4 4 2 2 3 4 4 4 4 4 5 4 4 4 5 5 4 4 5 5 6 6 6 5 5 6 6 5 5 5
3 1 3 1 3 3 1 1 1 1 2 1 2 3 3 3 2 2 3 3 4 4 4 3 4 4 4 4 4 4 4 5 5 6 6 5 5 5 4 4 5 5 5 5
3 2 1 1 2 2 2 0 1 1 2 2 2 1 2 4 3 3 3 3 4 4 4 4 4 4 4 4 3 4 4 5 5 6 5 5 5 5 5 3 2 3 3 5
2 3 3 5 5 3 4 3 1 1 0 1 2 1 1 3 3 2 2 3 4 4 4 4 4 4 3 3 3 3 4 5 6 5 5 4 4 4 4 4 3 4 2 3
Wind_Direction
354 86 191 212 193 181 167 165 210 215 191 150 158 168 176 183 179 177 176 173 175 179 175 163 158 156 150 149 148 147 146 152 142 130 133 130 145 155 132 126 137 132 130 127
29 253 221 202 192 172 171 182 228 217 168 142 159 183 184 185 189 184 179 179 178 172 168 165 161 160 161 161 158 155 157 156 156 155 153 152 153 162 141 115 111 139 140 140
198 232 200 181 192 198 245 178 187 168 135 81 107 149 207 198 195 189 185 181 175 174 175 173 167 168 166 167 167 168 163 160 163 154 127 106 78 61 62 64 61 210 167 151
237 235 191 186 195 178 247 216 174 153 129 189 145 179 246 202 193 196 194 188 183 182 174 172 168 169 173 176 170 162 161 159 161 150 137 140 142 144 165 158 169 222 179 143
251 201 179 198 206 179 208 193 160 160 142 105 127 142 259 187 196 206 198 193 186 177 173 172 171 171 172 169 164 160 155 155 154 149 148 142 142 152 141 123 120 120 18 76
241 242 190 203 215 183 143 75 52 54 76 82 224 155 244 206 201 197 195 190 182 173 169 167 164 156 156 157 155 150 147 151 152 150 145 146 153 153 134 131 169 190 265 326
304 293 260 171 128 341 104 94 50 13 12 254 244 166 234 222 194 184 183 185 179 172 167 166 164 161 161 160 160 157 153 154 153 149 147 150 160 158 157 164 174 172 180 237
207 278 260 200 171 178 168 138 153 176 206 272 322 231 254 213 181 170 165 167 168 170 172 173 174 169 168 166 164 162 161 159 159 158 160 152 148 144 145 151 159 175 194 209
180 248 272 221 184 150 145 153 161 135 149 103 294 296 324 81 130 145 149 152 166 175 176 176 175 172 171 169 170 168 165 161 164 164 157 151 152 146 146 142 140 170 193 167
164 232 278 270 47 42 153 147 96 108 137 192 299 283 235 204 175 159 162 163 171 170 172 172 174 174 174 172 169 164 163 164 164 165 164 160 160 154 149 140 135 134 155 133
138 170 291 350 159 199 112 100 108 117 146 148 199 266 228 196 180 172 175 171 169 168 169 169 171 170 168 161 157 161 162 158 160 162 159 156 154 153 145 147 155 147 126 128
148 126 234 258 254 185 150 159 142 144 192 155 156 263 263 190 182 168 168 165 161 164 166 167 168 162 159 162 163 165 167 165 167 162 156 156 149 144 145 152 155 140 132 124
128 109 82 332 333 355 73 149 148 134 125 145 154 254 289 149 141 151 153 157 152 156 157 159 163 162 163 168 170 169 169 170 164 159 158 158 155 155 162 166 155 147 142 126
104 109 154 190 217 234 290 304 130 119 138 178 194 209 248 161 156 158 154 158 159 157 152 149 152 160 166 170 171 169 170 169 165 162 163 168 171 171 173 168 159 154 148 134
91 112 174 212 221 191 261 282 259 165 178 175 207 198 209 187 174 170 160 151 148 151 150 154 157 161 166 167 169 169 169 169 168 166 169 176 175 169 164 161 161 151 145 144
71 105 67 340 329 8 322 297 254 222 183 172 171 224 222 170 141 145 151 149 151 159 158 159 160 161 171 172 172 171 172 173 168 170 175 175 169 168 168 166 160 149 140 134
65 94 83 292 319 28 279 236 206 203 201 166 189 225 169 122 142 168 164 159 164 167 163 160 165 172 180 179 175 178 175 167 167 172 175 175 172 173 176 171 158 158 156 144
130 100 116 120 41 225 245 247 176 152 195 178 167 167 151 159 168 163 158 157 159 158 160 166 168 176 189 178 160 159 162 164 169 173 176 176 174 173 168 162 164 169 164 163
144 133 121 120 167 273 294 307 156 141 293 311 141 139 138 132 98 76 177 163 166 164 162 167 168 164 166 162 157 153 161 161 166 178 179 175 172 169 167 170 175 180 171 170
100 112 120 131 158 226 255 292 311 102 316 319 107 140 137 109 114 227 218 176 157 152 145 140 133 124 140 172 164 164 167 169 178 185 184 175 170 169 174 177 179 180 171 175
82 83 131 156 197 252 261 297 39 116 226 273 132 130 131 160 197 207 181 165 146 138 141 135 136 147 164 170 162 160 170 184 188 177 170 171 172 173 173 174 175 167 164 159
162 152 171 155 192 248 282 38 133 205 224 206 151 145 137 123 115 144 144 147 140 132 133 138 140 155 164 157 154 162 179 185 166 158 167 177 175 177 174 168 169 167 163 158
175 180 177 180 206 230 239 168 197 167 149 163 149 151 126 113 105 134 130 139 144 145 148 149 148 153 163 161 158 168 184 163 163 167 178 183 179 177 170 170 170 168 167 167
312 33 124 152 248 239 225 97 60 111 132 154 138 135 123 125 140 137 135 145 156 159 159 153 145 150 167 171 169 174 173 161 163 179 184 178 171 167 161 164 171 172 176 175
275 8 60 223 260 322 322 67 113 59 62 73 81 102 155 144 154 163 169 174 180 170 167 164 163 165 177 176 177 174 168 161 168 175 174 169 168 164 155 149 156 180 192 188
244 184 179 224 232 200 243 247 174 104 324 147 106 355 282 179 176 180 190 197 182 174 168 168 169 166 175 176 182 181 173 169 170 174 171 165 161 159 155 148 117 60 112 154